Torna al catalogo

STARLINK-38120

AttivoComunicazioniSSO
NORAD 100120·PAYLOAD·🇺🇸 United States

Lanciato Jul 21, 2026 da Vandenberg Space Force Base

Loading…

Prossimi Passaggi (prossime 24 ore)

TLE

AggiornatoSource: Space-Track

Epoca: Sep 14, 2026, 11:31 UTC

1 A0120U 26166V   26257.48007825  .00000418  00000-0  36704-5 0  9998
2 A0120  97.2845 275.4996 0000988  95.0356 265.1022 15.75181566  8657

Traccia STARLINK-38120 in tempo reale con AllMySat

Download on the App Store